IT9NKT-WX Weather Reports


time (UTC)temp
C
wind
direction
speed
KPH
gust
KPH
rain 1hr
cm
rain 24hr
cm
rain mn
cm
humidity
%
barometer
mb
20260504081716 23 200 3.2 6.4 0.00 0.00 0.00 44 1021.3
20260504081004 23 198 3.2 9.7 0.00 0.00 0.00 46 1021.2
20260504080504 23 188 1.6 9.7 0.00 0.00 0.00 45 1021.4
20260504050504 16 170 0.0 1.6 0.00 0.00 0.00 66 1021.3
20260504050217 16 168 0.0 1.6 0.00 0.00 0.00 66 1021.2
20260504045503 15 187 0.0 1.6 0.00 0.00 0.00 68 1020.9
20260504045004 15 188 0.0 1.6 0.00 0.00 0.00 70 1021.2
20260504044716 14 187 0.0 1.6 0.00 0.00 0.00 71 1021.2
20260504044003 14 185 0.0 1.6 0.00 0.00 0.00 72 1021.2
20260504043504 14 184 0.0 1.6 0.00 0.00 0.00 73 1021.2
20260504043004 14 169 0.0 1.6 0.00 0.00 0.00 73 1021.2
20260504042503 14 170 0.0 1.6 0.00 0.00 0.00 73 1021.0
20260504042003 14 185 0.0 1.6 0.00 0.00 0.00 73 1021.0
20260504041504 13 194 0.0 1.6 0.00 0.00 0.00 73 1020.8
20260504041003 13 177 0.0 1.6 0.00 0.00 0.00 73 1020.7
20260504040503 13 177 0.0 3.2 0.00 0.00 0.00 72 1020.9
20260504040003 13 179 0.0 3.2 0.00 0.00 0.00 72 1020.8
20260504035504 13 169 1.6 1.6 0.00 0.00 0.00 71 1021.0
20260504035003 14 169 1.6 3.2 0.00 0.00 0.00 71 1020.9
20260504034503 14 182 0.0 3.2 0.00 0.00 0.00 70 1020.7
20260504034003 14 176 0.0 3.2 0.00 0.00 0.00 70 1021.0
20260504033504 13 176 1.6 3.2 0.00 0.00 0.00 71 1020.8
20260504033003 14 183 0.0 3.2 0.00 0.00 0.00 72 1020.8
20260504032503 13 173 0.0 1.6 0.00 0.00 0.00 73 1020.9
20260504032004 13 181 0.0 3.2 0.00 0.00 0.00 73 1021.2
20260504031504 13 182 0.0 3.2 0.00 0.00 0.00 73 1021.0
20260504031004 13 184 0.0 1.6 0.00 0.00 0.00 73 1021.1
20260504030503 13 183 0.0 1.6 0.00 0.00 0.00 73 1021.1
20260504030218 13 186 0.0 1.6 0.00 0.00 0.00 73 1021.0
20260504025503 13 182 0.0 1.6 0.00 0.00 0.00 73 1021.0
20260504025004 13 181 0.0 3.2 0.00 0.00 0.00 74 1021.2
20260504024503 13 183 0.0 3.2 0.00 0.00 0.00 74 1021.3
20260504024004 13 167 0.0 1.6 0.00 0.00 0.00 75 1021.4
20260504023503 13 168 0.0 3.2 0.00 0.00 0.00 75 1021.3
20260504023003 13 165 1.6 3.2 0.00 0.00 0.00 76 1021.2
20260504022504 13 162 1.6 3.2 0.00 0.00 0.00 76 1021.2
20260504022003 13 163 1.6 3.2 0.00 0.00 0.00 76 1021.4
20260504021504 13 167 1.6 4.8 0.00 0.00 0.00 77 1021.4
20260504021004 13 174 0.0 4.8 0.00 0.00 0.00 78 1021.3
20260504020715 13 182 0.0 1.6 0.00 0.00 0.00 78 1021.3
20260504020003 13 182 0.0 3.2 0.00 0.00 0.00 78 1021.4
20260504015716 13 184 0.0 3.2 0.00 0.00 0.00 78 1021.4
20260504015003 13 180 0.0 1.6 0.00 0.00 0.00 78 1021.4
20260504014504 13 180 0.0 1.6 0.00 0.00 0.00 77 1021.2
20260504014003 13 189 0.0 1.6 0.00 0.00 0.00 77 1021.1
20260504013504 14 193 0.0 1.6 0.00 0.00 0.00 77 1021.1
20260504013003 14 186 0.0 1.6 0.00 0.00 0.00 77 1021.1
20260504012504 14 187 0.0 1.6 0.00 0.00 0.00 77 1021.2
20260504012003 14 190 0.0 1.6 0.00 0.00 0.00 77 1021.1
20260504011503 14 178 0.0 0.0 0.00 0.00 0.00 77 1021.1
20260504011004 14 178 0.0 0.0 0.00 0.00 0.00 77 1021.3
20260504010503 14 187 0.0 1.6 0.00 0.00 0.00 77 1021.2
20260504010214 14 187 0.0 1.6 0.00 0.00 0.00 76 1021.4
20260504005503 14 191 0.0 1.6 0.00 0.00 0.00 77 1021.3
20260504005004 14 190 0.0 1.6 0.00 0.00 0.00 76 1021.3
20260504004503 14 181 0.0 1.6 0.00 0.00 0.00 77 1021.4
20260504004003 14 178 0.0 1.6 0.00 0.00 0.00 76 1021.2
20260504003504 14 177 0.0 1.6 0.00 0.00 0.00 76 1021.5
20260504003217 14 176 0.0 1.6 0.00 0.00 0.00 76 1021.2
20260504002504 14 176 0.0 3.2 0.00 0.00 0.00 76 1021.4
20260504002218 14 179 0.0 3.2 0.00 0.00 0.00 76 1021.6
20260504001503 14 180 0.0 3.2 0.00 0.00 0.00 76 1021.5
20260504001004 14 178 0.0 3.2 0.00 0.00 0.00 76 1021.4
20260504000504 14 190 0.0 1.6 0.00 0.00 0.00 76 1021.4
20260504000004 14 188 0.0 1.6 0.00 0.00 0.00 77 1021.5
20260503235503 14 190 0.0 1.6 0.00 0.00 0.00 77 1021.5
20260503235216 14 178 0.0 1.6 0.00 0.00 0.00 77 1021.4
20260503234504 14 152 0.0 3.2 0.00 0.00 0.00 78 1021.7
20260503234004 14 177 0.0 1.6 0.00 0.00 0.00 79 1021.8
20260503233504 14 176 0.0 0.0 0.00 0.00 0.00 79 1021.8
20260503233004 14 179 0.0 1.6 0.00 0.00 0.00 79 1021.9
20260503232503 14 182 0.0 1.6 0.00 0.00 0.00 80 1022.2
20260503232213 14 181 0.0 1.6 0.00 0.00 0.00 80 1022.1
20260503231503 15 0 0.0 0.0 0.00 0.00 0.00 79 1022.0
20260503230504 15 196 0.0 0.0 0.00 0.00 0.00 79 1022.1
20260503230003 15 172 0.0 1.6 0.00 0.00 0.00 78 1022.0
20260503225503 15 160 0.0 1.6 0.00 0.00 0.00 78 1021.8
20260503225003 15 241 0.0 1.6 0.00 0.00 0.00 78 1022.0
20260503224715 15 241 0.0 1.6 0.00 0.00 0.00 78 1022.1
20260503224218 15 210 0.0 1.6 0.00 0.00 0.00 78 1022.1
20260503223504 15 179 0.0 1.6 0.00 0.00 0.00 78 1022.1
20260503223004 15 203 0.0 1.6 0.00 0.00 0.00 78 1022.1
20260503222504 15 222 0.0 3.2 0.00 0.00 0.00 78 1022.2
20260503222215 15 208 0.0 3.2 0.00 0.00 0.00 78 1022.1
20260503221504 15 171 0.0 0.0 0.00 0.00 0.00 78 1022.1
20260503221004 15 170 0.0 1.6 0.00 0.00 0.00 78 1022.2
20260503220504 15 169 0.0 1.6 0.00 0.00 0.00 77 1021.9
20260503220217 15 181 0.0 3.2 0.00 0.00 0.00 77 1022.2
20260503215503 15 176 0.0 3.2 0.00 0.00 0.00 76 1022.1
20260503215004 16 186 0.0 1.6 0.00 0.00 0.00 75 1022.0
20260503214503 16 192 0.0 1.6 0.00 0.00 0.00 74 1022.2
20260503214004 16 0 0.0 0.0 0.00 0.00 0.00 74 1022.1
20260503213503 16 0 0.0 0.0 0.00 0.00 0.00 73 1021.9
20260503213004 16 0 0.0 0.0 0.00 0.00 0.00 73 1022.0
20260503212504 16 0 0.0 0.0 0.00 0.00 0.00 73 1021.8
20260503212003 16 0 0.0 0.0 0.00 0.00 0.00 73 1021.6
20260503211503 16 0 0.0 0.0 0.00 0.00 0.00 73 1021.8
20260503211004 16 0 0.0 0.0 0.00 0.00 0.00 73 1021.7
20260503210503 16 171 0.0 0.0 0.00 0.00 0.00 73 1021.7
20260503210004 16 176 0.0 0.0 0.00 0.00 0.00 72 1021.6
20260503205504 16 186 0.0 1.6 0.00 0.00 0.00 72 1021.7
20260503205003 16 182 0.0 1.6 0.00 0.00 0.00 71 1021.7
20260503204504 16 195 0.0 3.2 0.00 0.00 0.00 70 1021.7
20260503204003 16 192 0.0 3.2 0.00 0.00 0.00 69 1021.8
20260503203504 17 170 0.0 1.6 0.00 0.00 0.00 68 1021.6
20260503203003 17 182 0.0 1.6 0.00 0.00 0.00 67 1021.8
20260503202504 17 190 0.0 1.6 0.00 0.00 0.00 66 1021.8
20260503202216 17 190 0.0 0.0 0.00 0.00 0.00 65 1021.7
20260503201503 17 183 0.0 1.6 0.00 0.00 0.00 65 1021.7
20260503201003 17 180 0.0 1.6 0.00 0.00 0.00 65 1021.5
20260503200504 17 0 0.0 0.0 0.00 0.00 0.00 65 1021.6
20260503200218 17 0 0.0 0.0 0.00 0.00 0.00 65 1021.5
20260503195503 17 0 0.0 0.0 0.00 0.00 0.00 65 1021.5
20260503195003 17 216 0.0 1.6 0.00 0.00 0.00 65 1021.6
20260503194504 17 216 0.0 1.6 0.00 0.00 0.00 64 1021.4
20260503194003 17 188 0.0 1.6 0.00 0.00 0.00 64 1021.7
20260503193718 17 188 0.0 1.6 0.00 0.00 0.00 64 1021.5
20260503193004 17 185 0.0 1.6 0.00 0.00 0.00 64 1021.5
20260503192714 17 187 0.0 1.6 0.00 0.00 0.00 64 1021.4
20260503192003 17 195 0.0 3.2 0.00 0.00 0.00 63 1021.5
20260503191504 17 196 0.0 3.2 0.00 0.00 0.00 63 1021.4
20260503191004 17 194 0.0 1.6 0.00 0.00 0.00 63 1021.2
20260503190503 18 192 0.0 1.6 0.00 0.00 0.00 63 1021.1
20260503190004 18 195 0.0 3.2 0.00 0.00 0.00 63 1021.1
20260503185504 17 200 0.0 3.2 0.00 0.00 0.00 63 1021.2
20260503185004 17 198 0.0 3.2 0.00 0.00 0.00 63 1021.2
20260503184712 17 193 1.6 3.2 0.00 0.00 0.00 63 1021.1
20260503184004 17 193 1.6 3.2 0.00 0.00 0.00 63 1021.0
20260503183503 17 196 0.0 3.2 0.00 0.00 0.00 63 1020.7
20260503183004 17 196 0.0 1.6 0.00 0.00 0.00 63 1020.7
20260503182503 17 195 1.6 3.2 0.00 0.00 0.00 63 1020.8
20260503182004 17 195 1.6 3.2 0.00 0.00 0.00 63 1020.6
20260503181504 17 192 0.0 1.6 0.00 0.00 0.00 63 1020.6
20260503181004 17 186 0.0 3.2 0.00 0.00 0.00 63 1020.7
20260503180503 17 188 0.0 3.2 0.00 0.00 0.00 63 1020.7
20260503180004 17 172 0.0 1.6 0.00 0.00 0.00 63 1020.7
20260503175503 17 165 0.0 3.2 0.00 0.00 0.00 63 1020.5
20260503175004 17 169 0.0 3.2 0.00 0.00 0.00 63 1020.5
20260503174504 17 171 0.0 1.6 0.00 0.00 0.00 63 1020.5
20260503174004 17 193 0.0 4.8 0.00 0.00 0.00 63 1020.6
20260503173503 17 195 1.6 4.8 0.00 0.00 0.00 62 1020.7
20260503173004 17 169 1.6 3.2 0.00 0.00 0.00 62 1020.7
20260503172504 17 139 1.6 3.2 0.00 0.00 0.00 62 1020.4
20260503172003 17 148 1.6 6.4 0.00 0.00 0.00 62 1020.5
20260503171503 17 150 1.6 6.4 0.00 0.00 0.00 62 1020.4
20260503171004 17 152 1.6 4.8 0.00 0.00 0.00 62 1020.4
20260503170504 17 140 1.6 9.7 0.00 0.00 0.00 62 1020.4
20260503151004 18 142 3.2 9.7 0.00 0.00 0.00 60 1020.4
20260503150504 18 120 1.6 6.4 0.00 0.00 0.00 60 1020.4
20260503150216 19 119 3.2 9.7 0.00 0.00 0.00 60 1020.5
20260503131004 21 99 4.8 12.9 0.00 0.00 0.00 39 1020.5
20260503130503 20 108 4.8 17.7 0.00 0.00 0.00 41 1020.5
20260503110503 23 191 1.6 6.4 0.00 0.00 0.00 35 1020.8
20260503090503 22 191 1.6 6.4 0.00 0.00 0.00 35 1022.0
20260503090215 22 189 1.6 6.4 0.00 0.00 0.00 35 1022.0